Weather Roundup
Issued by NWS Springfield, MO

Home | Current Version | Previous Version | Text Only | Print | Product List | Glossary On
Versions: 1 2 3 4 5 6 7 8 9 10 11 12 13 14 15 16 17 18 19 20 21 22 23 24 25 26 27 28 29 30 31 32 33 34 35 36 37 38 39 40 41 42 43 44 45 46 47 48 49 50
000
NZUS99 KSGF 270507
HRRSGF

HOURLY WEATHER
NATIONAL WEATHER SERVICE SPRINGFIELD MO
1200 AM CDT TUE SEP 27 2016

......SGF CWA......

CITY           SKY/WX    TMP DP  RH WIND       PRES   REMARKS
SPRINGFIELD    CLEAR     52  44  74 CALM      30.15F
JOPLIN         CLEAR     51  48  89 SE3       30.16F
WEST PLAINS    CLEAR     49  44  83 W3        30.16F
ROLLA          CLEAR     50  45  83 SW5       30.12S
OSAGE BEACH    CLEAR     51  49  92 CALM      30.14S
BRANSON        CLOUDY    50  46  87 CALM      30.18S

......SURROUNDING SGF CWA......

CITY           SKY/WX    TMP DP  RH WIND       PRES   REMARKS
CHANUTE        CLEAR     55  49  80 CALM      30.15F
PARSONS        CLEAR     49  48  97 CALM      30.17F
COFFEYVILLE    CLEAR     52  50  93 CALM      30.17S
EMPORIA        CLEAR     54  46  74 SW8       30.14F
GROVE OK       CLOUDY    50  50 100 CALM      30.18F
ROGERS AR      CLOUDY    51  49  92 CALM      30.18F
SILOAM SPRINGS CLOUDY    50  39  66 CALM      30.19R
HARRISON AR    CLOUDY    51  45  79 W5        30.18R
NEAR YELLVILLE CLEAR     54  46  76 CALM      30.13F

......KANSAS AND MISSOURI......

CITY           SKY/WX    TMP DP  RH WIND       PRES   REMARKS
KANSAS CTY INT CLEAR     57  46  66 SW8       30.10F
DOWNTOWN KC    CLEAR     61  49  64 SW3       30.10S
COLUMBIA       CLEAR     56  44  64 SW8       30.11S
SEDALIA        CLEAR     56  45  66 SW9       30.13S
ST JOSEPH      CLEAR     55  50  83 CALM      30.09S
ST LOUIS       CLEAR     60  45  57 CALM      30.09F
SPIRIT OF STL  CLEAR     52  50  93 CALM      30.08F
KIRKSVILLE     CLEAR     55  44  66 SW6       30.06F
WICHITA        CLEAR     57  48  72 CALM      30.17S
TOPEKA         CLEAR     55  50  83 SW3       30.12S
OLATHE         CLEAR     57  47  69 SW5       30.12F

......TENNESSEE......

CITY           SKY/WX    TMP DP  RH WIND       PRES   REMARKS
MEMPHIS        CLOUDY    65  54  67 NE5       30.09F
NASHVILLE      PTCLDY    61  55  81 N5        30.09F

......ARKANSAS.......

CITY           SKY/WX    TMP DP  RH WIND       PRES   REMARKS
FAYETTEVILLE   CLOUDY    49  49 100 CALM      30.18S
FT SMITH       CLOUDY    64  46  52 NE3       30.14F
LITTLE ROCK    PTCLDY    65  58  78 SW3       30.12F

......OKLAHOMA.......

CITY           SKY/WX    TMP DP  RH WIND       PRES   REMARKS
TULSA          CLOUDY    56  50  80 CALM      30.16S
PONCA CITY     CLOUDY    53  49  86 CALM      30.17F
MCALESTER      CLOUDY    55  49  80 CALM      30.17S
OKLAHOMA CITY  CLOUDY    60  50  69 NW5       30.19F

......IOWA............

CITY           SKY/WX    TMP DP  RH WIND       PRES   REMARKS
DES MOINES     CLEAR     57  45  64 W6        30.02S
QUAD CITIES    CLEAR     55  42  61 SW7       29.96F

......ILLINOIS........

CITY           SKY/WX    TMP DP  RH WIND       PRES   REMARKS
QUINCY         CLEAR     54  45  71 SW6       30.04F
CHICAGO        CLEAR     57  36  45 W8        29.91F




USA.gov is the U.S. government's official web portal to all federal, state and local government web resources and services.